Time,TemperatureF,DewpointF,PressureIn,WindDirection,WindDirectionDegrees,WindSpeedMPH,WindSpeedGustMPH,Humidity,HourlyPrecipIn,Conditions,Clouds,dailyrainin,SoftwareType,DateUTC
2013-01-05 00:05:00,30.5,23.2,30.33,SE,143,0.0,14.0,74,0.00,,,0.00,Wunderground v.1.15,2013-01-05 06:05:00,
2013-01-05 00:15:00,31.0,23.4,30.33,East,89,0.0,14.0,73,0.00,,,0.00,Wunderground v.1.15,2013-01-05 06:15:00,
2013-01-05 00:20:00,30.9,22.9,30.33,East,89,0.0,14.0,72,0.00,,,0.00,Wunderground v.1.15,2013-01-05 06:20:00,
2013-01-05 00:25:00,30.7,23.1,30.33,SE,132,0.0,14.0,73,0.00,,,0.00,Wunderground v.1.15,2013-01-05 06:25:00,
2013-01-05 00:35:00,30.6,23.0,30.33,SE,125,0.0,14.0,73,0.00,,,0.00,Wunderground v.1.15,2013-01-05 06:35:00,
2013-01-05 00:40:00,30.7,23.4,30.33,East,94,0.0,14.0,74,0.00,,,0.00,Wunderground v.1.15,2013-01-05 06:40:00,
2013-01-05 00:45:00,31.0,23.7,30.33,East,83,0.0,14.0,74,0.00,,,0.00,Wunderground v.1.15,2013-01-05 06:45:00,
2013-01-05 00:50:00,31.2,23.5,30.33,ESE,108,0.0,14.0,73,0.00,,,0.00,Wunderground v.1.15,2013-01-05 06:50:00,
2013-01-05 00:55:00,31.2,23.5,30.31,SSE,153,0.0,14.0,73,0.00,,,0.00,Wunderground v.1.15,2013-01-05 06:55:00,
2013-01-05 01:05:00,30.5,23.2,30.32,ESE,118,0.0,14.0,74,0.00,,,0.00,Wunderground v.1.15,2013-01-05 07:05:00,
2013-01-05 01:10:00,30.5,23.2,30.32,SE,131,0.0,14.0,74,0.00,,,0.00,Wunderground v.1.15,2013-01-05 07:10:00,
2013-01-05 01:15:00,30.7,23.7,30.32,SE,143,0.0,14.0,75,0.00,,,0.00,Wunderground v.1.15,2013-01-05 07:15:00,
2013-01-05 01:20:00,30.9,23.9,30.31,SSW,212,0.0,14.0,75,0.00,,,0.00,Wunderground v.1.15,2013-01-05 07:20:00,
2013-01-05 01:25:00,30.7,23.4,30.31,ESE,120,0.0,14.0,74,0.00,,,0.00,Wunderground v.1.15,2013-01-05 07:25:00,
2013-01-05 01:35:00,30.5,23.5,30.31,East,95,0.0,14.0,75,0.00,,,0.00,Wunderground v.1.15,2013-01-05 07:35:00,
2013-01-05 01:40:00,30.6,23.9,30.31,SE,125,0.0,14.0,76,0.00,,,0.00,Wunderground v.1.15,2013-01-05 07:40:00,
2013-01-05 01:50:00,31.6,24.6,30.31,SE,130,0.0,14.0,75,0.00,,,0.00,Wunderground v.1.15,2013-01-05 07:50:00,
2013-01-05 01:55:00,31.8,24.5,30.31,SSE,158,0.0,14.0,74,0.00,,,0.00,Wunderground v.1.15,2013-01-05 07:55:00,
2013-01-05 01:59:00,31.7,24.4,30.31,SSE,150,0.0,14.0,74,0.00,,,0.00,Wunderground v.1.15,2013-01-05 07:59:00,
2013-01-05 02:05:00,31.6,24.3,30.31,SSE,152,0.0,14.0,74,0.00,,,0.00,Wunderground v.1.15,2013-01-05 08:05:00,
2013-01-05 02:10:00,31.4,24.1,30.31,ESE,111,0.0,14.0,74,0.00,,,0.00,Wunderground v.1.15,2013-01-05 08:10:00,
2013-01-05 02:15:00,31.1,23.8,30.30,ESE,110,0.0,14.0,74,0.00,,,0.00,Wunderground v.1.15,2013-01-05 08:15:00,
2013-01-05 02:25:00,30.3,23.3,30.31,SSE,158,0.0,14.0,75,0.00,,,0.00,Wunderground v.1.15,2013-01-05 08:25:00,
2013-01-05 02:35:00,30.2,23.5,30.31,ESE,102,0.0,14.0,76,0.00,,,0.00,Wunderground v.1.15,2013-01-05 08:35:00,
2013-01-05 02:45:00,30.4,23.7,30.30,ESE,114,0.0,14.0,76,0.00,,,0.00,Wunderground v.1.15,2013-01-05 08:45:00,
2013-01-05 02:50:00,30.7,24.0,30.30,ESE,108,0.0,14.0,76,0.00,,,0.00,Wunderground v.1.15,2013-01-05 08:50:00,
2013-01-05 02:54:00,30.9,24.2,30.31,ESE,111,0.0,14.0,76,0.00,,,0.00,Wunderground v.1.15,2013-01-05 08:54:00,
2013-01-05 03:00:00,30.9,24.2,30.30,East,101,0.0,14.0,76,0.00,,,0.00,Wunderground v.1.15,2013-01-05 09:00:00,
2013-01-05 03:10:00,31.2,24.2,30.31,East,86,0.0,14.0,75,0.00,,,0.00,Wunderground v.1.15,2013-01-05 09:10:00,
2013-01-05 03:20:00,31.1,24.4,30.31,ESE,113,0.0,14.0,76,0.00,,,0.00,Wunderground v.1.15,2013-01-05 09:20:00,
2013-01-05 03:25:00,31.3,24.3,30.31,ESE,115,0.0,14.0,75,0.00,,,0.00,Wunderground v.1.15,2013-01-05 09:25:00,
2013-01-05 03:35:00,31.3,24.3,30.31,ESE,111,0.0,14.0,75,0.00,,,0.00,Wunderground v.1.15,2013-01-05 09:35:00,
2013-01-05 03:40:00,31.6,24.6,30.31,ENE,77,0.0,14.0,75,0.00,,,0.00,Wunderground v.1.15,2013-01-05 09:40:00,
2013-01-05 03:45:00,31.5,24.5,30.31,East,82,0.0,14.0,75,0.00,,,0.00,Wunderground v.1.15,2013-01-05 09:45:00,
2013-01-05 03:50:00,31.5,24.5,30.31,ESE,122,0.0,14.0,75,0.00,,,0.00,Wunderground v.1.15,2013-01-05 09:50:00,
2013-01-05 03:55:00,31.4,24.4,30.31,ESE,114,0.0,14.0,75,0.00,,,0.00,Wunderground v.1.15,2013-01-05 09:55:00,
2013-01-05 04:05:00,31.5,24.5,30.31,ESE,104,0.0,14.0,75,0.00,,,0.00,Wunderground v.1.15,2013-01-05 10:05:00,
2013-01-05 04:15:00,31.7,24.4,30.30,SE,134,0.0,14.0,74,0.00,,,0.00,Wunderground v.1.15,2013-01-05 10:15:00,
2013-01-05 04:20:00,31.6,24.3,30.30,East,99,0.0,14.0,74,0.00,,,0.00,Wunderground v.1.15,2013-01-05 10:20:00,
2013-01-05 04:25:00,31.7,24.4,30.30,ESE,110,0.0,14.0,74,0.00,,,0.00,Wunderground v.1.15,2013-01-05 10:25:00,
2013-01-05 04:35:00,31.6,24.3,30.30,ESE,118,0.0,14.0,74,0.00,,,0.00,Wunderground v.1.15,2013-01-05 10:35:00,
2013-01-05 04:39:00,31.8,24.5,30.30,SE,134,0.0,14.0,74,0.00,,,0.00,Wunderground v.1.15,2013-01-05 10:39:00,
2013-01-05 04:45:00,32.1,24.7,30.30,SE,136,0.0,14.0,74,0.00,,,0.00,Wunderground v.1.15,2013-01-05 10:45:00,
2013-01-05 04:50:00,32.4,25.0,30.30,ESE,114,0.0,14.0,74,0.00,,,0.00,Wunderground v.1.15,2013-01-05 10:50:00,
2013-01-05 05:00:00,32.9,25.2,30.30,SE,135,0.0,14.0,73,0.00,,,0.00,Wunderground v.1.15,2013-01-05 11:00:00,
2013-01-05 05:10:00,33.1,25.4,30.30,ESE,113,1.0,1.0,73,0.00,,,0.00,Wunderground v.1.15,2013-01-05 11:10:00,
2013-01-05 05:20:00,33.4,25.3,30.30,ESE,118,1.0,14.0,72,0.00,,,0.00,Wunderground v.1.15,2013-01-05 11:20:00,
2013-01-05 05:24:00,33.4,25.0,30.30,SSE,153,1.0,14.0,71,0.00,,,0.00,Wunderground v.1.15,2013-01-05 11:24:00,
2013-01-05 05:30:00,33.4,25.0,30.29,ESE,111,1.0,14.0,71,0.00,,,0.00,Wunderground v.1.15,2013-01-05 11:30:00,
2013-01-05 05:35:00,33.5,25.1,30.29,SE,132,1.0,14.0,71,0.00,,,0.00,Wunderground v.1.15,2013-01-05 11:35:00,
2013-01-05 05:40:00,33.4,25.0,30.29,ESE,110,1.0,1.0,71,0.00,,,0.00,Wunderground v.1.15,2013-01-05 11:40:00,
2013-01-05 05:50:00,33.5,25.1,30.29,ESE,122,1.0,1.0,71,0.00,,,0.00,Wunderground v.1.15,2013-01-05 11:50:00,
2013-01-05 05:55:00,33.6,25.2,30.29,East,101,1.0,14.0,71,0.00,,,0.00,Wunderground v.1.15,2013-01-05 11:55:00,
2013-01-05 06:05:00,33.9,25.1,30.29,ESE,111,1.0,14.0,70,0.00,,,0.00,Wunderground v.1.15,2013-01-05 12:05:00,
2013-01-05 06:10:00,33.9,25.1,30.29,East,100,1.0,14.0,70,0.00,,,0.00,Wunderground v.1.15,2013-01-05 12:10:00,
2013-01-05 06:15:00,34.0,25.2,30.29,SE,127,1.0,14.0,70,0.00,,,0.00,Wunderground v.1.15,2013-01-05 12:15:00,
2013-01-05 06:20:00,34.0,25.2,30.29,ESE,111,1.0,1.0,70,0.00,,,0.00,Wunderground v.1.15,2013-01-05 12:20:00,
2013-01-05 06:25:00,33.9,25.1,30.30,SSW,208,0.0,14.0,70,0.00,,,0.00,Wunderground v.1.15,2013-01-05 12:25:00,
2013-01-05 06:35:00,34.1,25.3,30.31,SE,139,0.0,14.0,70,0.00,,,0.00,Wunderground v.1.15,2013-01-05 12:35:00,
2013-01-05 06:45:00,34.1,25.3,30.30,SW,225,0.0,14.0,70,0.00,,,0.00,Wunderground v.1.15,2013-01-05 12:45:00,
2013-01-05 06:55:00,34.2,25.4,30.31,East,87,1.0,14.0,70,0.00,,,0.00,Wunderground v.1.15,2013-01-05 12:55:00,
2013-01-05 07:05:00,34.0,25.6,30.31,SSW,204,1.0,14.0,71,0.00,,,0.00,Wunderground v.1.15,2013-01-05 13:05:00,
2013-01-05 07:15:00,33.9,25.5,30.31,ESE,105,0.0,2.0,71,0.00,,,0.00,Wunderground v.1.15,2013-01-05 13:15:00,
2013-01-05 07:20:00,34.0,25.9,30.31,South,181,1.0,1.0,72,0.00,,,0.00,Wunderground v.1.15,2013-01-05 13:20:00,
2013-01-05 07:30:00,34.0,25.9,30.30,ESE,118,1.0,14.0,72,0.00,,,0.00,Wunderground v.1.15,2013-01-05 13:30:00,
2013-01-05 07:40:00,34.3,26.2,30.31,East,98,2.0,14.0,72,0.00,,,0.00,Wunderground v.1.15,2013-01-05 13:40:00,
2013-01-05 07:45:00,34.4,26.3,30.31,SE,125,1.0,14.0,72,0.00,,,0.00,Wunderground v.1.15,2013-01-05 13:45:00,
2013-01-05 07:55:00,34.5,26.4,30.31,ESE,113,2.0,14.0,72,0.00,,,0.00,Wunderground v.1.15,2013-01-05 13:55:00,
2013-01-05 08:00:00,34.5,26.7,30.31,East,86,1.0,14.0,73,0.00,,,0.00,Wunderground v.1.15,2013-01-05 14:00:00,
2013-01-05 08:05:00,34.8,27.0,30.31,ESE,103,1.0,14.0,73,0.00,,,0.00,Wunderground v.1.15,2013-01-05 14:05:00,
2013-01-05 08:10:00,35.0,26.9,30.31,ESE,103,1.0,14.0,72,0.00,,,0.00,Wunderground v.1.15,2013-01-05 14:10:00,
2013-01-05 08:15:00,35.3,27.2,30.30,ESE,122,0.0,14.0,72,0.00,,,0.00,Wunderground v.1.15,2013-01-05 14:15:00,
2013-01-05 08:25:00,35.5,27.4,30.30,East,98,0.0,14.0,72,0.00,,,0.00,Wunderground v.1.15,2013-01-05 14:25:00,
2013-01-05 08:30:00,35.7,27.2,30.30,ESE,108,0.0,14.0,71,0.00,,,0.00,Wunderground v.1.15,2013-01-05 14:30:00,
2013-01-05 08:40:00,36.0,27.5,30.30,ESE,115,1.0,1.0,71,0.00,,,0.00,Wunderground v.1.15,2013-01-05 14:40:00,
2013-01-05 08:45:00,36.2,27.7,30.30,SE,131,0.0,14.0,71,0.00,,,0.00,Wunderground v.1.15,2013-01-05 14:45:00,
2013-01-05 08:55:00,36.3,27.8,30.30,East,100,1.0,14.0,71,0.00,,,0.00,Wunderground v.1.15,2013-01-05 14:55:00,
2013-01-05 08:59:00,36.3,27.8,30.30,ESE,123,1.0,1.0,71,0.00,,,0.00,Wunderground v.1.15,2013-01-05 14:59:00,
2013-01-05 09:05:00,36.4,27.9,30.29,East,89,0.0,14.0,71,0.00,,,0.00,Wunderground v.1.15,2013-01-05 15:05:00,
2013-01-05 09:10:00,36.5,28.0,30.30,SE,139,1.0,1.0,71,0.00,,,0.00,Wunderground v.1.15,2013-01-05 15:10:00,
2013-01-05 09:15:00,36.7,28.2,30.30,ESE,120,2.0,2.0,71,0.00,,,0.00,Wunderground v.1.15,2013-01-05 15:15:00,
2013-01-05 09:25:00,36.7,28.2,30.30,ESE,117,2.0,14.0,71,0.00,,,0.00,Wunderground v.1.15,2013-01-05 15:25:00,
2013-01-05 09:30:00,36.9,28.0,30.30,ESE,114,2.0,14.0,70,0.00,,,0.00,Wunderground v.1.15,2013-01-05 15:30:00,
2013-01-05 09:35:00,37.2,28.3,30.29,ESE,113,1.0,14.0,70,0.00,,,0.00,Wunderground v.1.15,2013-01-05 15:35:00,
2013-01-05 09:40:00,37.3,28.1,30.29,South,174,2.0,2.0,69,0.00,,,0.00,Wunderground v.1.15,2013-01-05 15:40:00,
2013-01-05 09:45:00,37.5,28.2,30.29,East,91,2.0,14.0,69,0.00,,,0.00,Wunderground v.1.15,2013-01-05 15:45:00,
2013-01-05 09:55:00,37.8,28.2,30.29,ESE,107,1.0,14.0,68,0.00,,,0.00,Wunderground v.1.15,2013-01-05 15:55:00,
2013-01-05 10:00:00,37.9,27.9,30.28,East,92,2.0,2.0,67,0.00,,,0.00,Wunderground v.1.15,2013-01-05 16:00:00,
2013-01-05 10:10:00,38.3,28.3,30.28,SSE,150,1.0,14.0,67,0.00,,,0.00,Wunderground v.1.15,2013-01-05 16:10:00,
2013-01-05 10:15:00,38.5,28.1,30.28,East,96,1.0,14.0,66,0.00,,,0.00,Wunderground v.1.15,2013-01-05 16:15:00,
2013-01-05 10:19:00,38.7,28.3,30.28,East,101,2.0,2.0,66,0.00,,,0.00,Wunderground v.1.15,2013-01-05 16:19:00,
2013-01-05 10:25:00,38.8,28.4,30.28,ESE,110,2.0,14.0,66,0.00,,,0.00,Wunderground v.1.15,2013-01-05 16:25:00,
2013-01-05 10:30:00,38.9,28.1,30.28,ESE,113,2.0,14.0,65,0.00,,,0.00,Wunderground v.1.15,2013-01-05 16:30:00,
2013-01-05 10:35:00,38.9,28.1,30.27,East,97,2.0,14.0,65,0.00,,,0.00,Wunderground v.1.15,2013-01-05 16:35:00,
2013-01-05 10:40:00,39.0,28.2,30.27,ESE,113,2.0,14.0,65,0.00,,,0.00,Wunderground v.1.15,2013-01-05 16:40:00,
2013-01-05 10:45:00,39.0,28.2,30.27,ESE,113,3.0,14.0,65,0.00,,,0.00,Wunderground v.1.15,2013-01-05 16:45:00,
2013-01-05 10:50:00,39.2,28.4,30.27,ESE,106,3.0,14.0,65,0.00,,,0.00,Wunderground v.1.15,2013-01-05 16:50:00,
2013-01-05 11:00:00,39.5,29.1,30.27,ESE,115,3.0,14.0,66,0.00,,,0.00,Wunderground v.1.15,2013-01-05 17:00:00,
2013-01-05 11:05:00,39.7,28.9,30.26,ENE,68,3.0,14.0,65,0.00,,,0.00,Wunderground v.1.15,2013-01-05 17:05:00,
2013-01-05 11:10:00,39.9,29.1,30.26,East,94,3.0,14.0,65,0.00,,,0.00,Wunderground v.1.15,2013-01-05 17:10:00,
2013-01-05 11:15:00,39.9,29.5,30.26,SE,143,4.0,14.0,66,0.00,,,0.00,Wunderground v.1.15,2013-01-05 17:15:00,
2013-01-05 11:19:00,40.0,29.9,30.25,SSE,154,4.0,14.0,67,0.00,,,0.00,Wunderground v.1.15,2013-01-05 17:19:00,
2013-01-05 11:25:00,40.0,30.3,30.25,ESE,111,4.0,14.0,68,0.00,,,0.00,Wunderground v.1.15,2013-01-05 17:25:00,
2013-01-05 11:30:00,40.0,30.3,30.25,East,101,5.0,14.0,68,0.00,,,0.00,Wunderground v.1.15,2013-01-05 17:30:00,
2013-01-05 11:35:00,40.0,30.6,30.24,SE,135,6.0,14.0,69,0.00,,,0.00,Wunderground v.1.15,2013-01-05 17:35:00,
2013-01-05 11:40:00,40.2,31.2,30.24,ESE,110,4.0,14.0,70,0.00,,,0.00,Wunderground v.1.15,2013-01-05 17:40:00,
2013-01-05 11:45:00,40.0,31.4,30.24,ESE,111,4.0,14.0,71,0.00,,,0.00,Wunderground v.1.15,2013-01-05 17:45:00,
2013-01-05 11:50:00,39.8,31.8,30.24,ESE,123,5.0,14.0,73,0.00,,,0.00,Wunderground v.1.15,2013-01-05 17:50:00,
2013-01-05 11:55:00,39.6,32.0,30.23,SE,146,4.0,14.0,74,0.00,,,0.00,Wunderground v.1.15,2013-01-05 17:55:00,
2013-01-05 12:05:00,39.7,32.4,30.23,ENE,72,4.0,5.0,75,0.00,,,0.00,Wunderground v.1.15,2013-01-05 18:05:00,
2013-01-05 12:10:00,39.7,32.4,30.22,East,84,4.0,4.0,75,0.00,,,0.00,Wunderground v.1.15,2013-01-05 18:10:00,
2013-01-05 12:14:00,39.8,32.5,30.23,East,91,3.0,11.0,75,0.00,,,0.00,Wunderground v.1.15,2013-01-05 18:14:00,
2013-01-05 12:20:00,39.7,32.8,30.22,ESE,122,4.0,14.0,76,0.00,,,0.00,Wunderground v.1.15,2013-01-05 18:20:00,
2013-01-05 12:25:00,39.6,32.7,30.22,ESE,120,5.0,14.0,76,0.00,,,0.00,Wunderground v.1.15,2013-01-05 18:25:00,
2013-01-05 12:35:00,39.5,32.9,30.21,SW,220,4.0,14.0,77,0.00,,,0.00,Wunderground v.1.15,2013-01-05 18:35:00,
2013-01-05 12:40:00,39.5,33.2,30.21,SE,131,4.0,4.0,78,0.00,,,0.00,Wunderground v.1.15,2013-01-05 18:40:00,
2013-01-05 12:45:00,39.4,33.1,30.20,ENE,70,3.0,14.0,78,0.00,,,0.00,Wunderground v.1.15,2013-01-05 18:45:00,
2013-01-05 12:55:00,39.4,33.1,30.19,ESE,107,3.0,14.0,78,0.00,,,0.00,Wunderground v.1.15,2013-01-05 18:55:00,
2013-01-05 13:05:00,39.4,33.1,30.19,ESE,113,2.0,14.0,78,0.00,,,0.00,Wunderground v.1.15,2013-01-05 19:05:00,
2013-01-05 13:09:00,39.5,33.2,30.19,ESE,115,2.0,2.0,78,0.00,,,0.00,Wunderground v.1.15,2013-01-05 19:09:00,
2013-01-05 13:15:00,39.5,33.2,30.19,ESE,114,2.0,14.0,78,0.00,,,0.00,Wunderground v.1.15,2013-01-05 19:15:00,
2013-01-05 13:20:00,39.6,33.0,30.18,ESE,105,2.0,2.0,77,0.00,,,0.00,Wunderground v.1.15,2013-01-05 19:20:00,
2013-01-05 13:25:00,39.6,33.0,30.18,East,98,2.0,14.0,77,0.00,,,0.00,Wunderground v.1.15,2013-01-05 19:25:00,
2013-01-05 13:35:00,39.5,32.9,30.18,ESE,122,2.0,14.0,77,0.00,,,0.00,Wunderground v.1.15,2013-01-05 19:35:00,
2013-01-05 13:40:00,39.5,32.9,30.17,East,101,1.0,14.0,77,0.00,,,0.00,Wunderground v.1.15,2013-01-05 19:40:00,
2013-01-05 13:45:00,39.5,32.9,30.17,East,101,2.0,14.0,77,0.00,,,0.00,Wunderground v.1.15,2013-01-05 19:45:00,
2013-01-05 13:50:00,39.7,33.4,30.17,SSE,158,1.0,14.0,78,0.00,,,0.00,Wunderground v.1.15,2013-01-05 19:50:00,
2013-01-05 13:55:00,39.9,33.3,30.17,ESE,104,1.0,14.0,77,0.00,,,0.00,Wunderground v.1.15,2013-01-05 19:55:00,
2013-01-05 14:04:00,40.6,33.6,30.16,ESE,113,2.0,14.0,76,0.00,,,0.00,Wunderground v.1.15,2013-01-05 20:04:00,
2013-01-05 14:10:00,40.9,33.6,30.16,ESE,111,2.0,2.0,75,0.00,,,0.00,Wunderground v.1.15,2013-01-05 20:10:00,
2013-01-05 14:15:00,41.1,33.4,30.16,ESE,120,3.0,3.0,74,0.00,,,0.00,Wunderground v.1.15,2013-01-05 20:15:00,
2013-01-05 14:20:00,41.2,33.5,30.16,SSE,151,3.0,3.0,74,0.00,,,0.00,Wunderground v.1.15,2013-01-05 20:20:00,
2013-01-05 14:25:00,41.3,33.6,30.16,SE,128,3.0,4.0,74,0.00,,,0.00,Wunderground v.1.15,2013-01-05 20:25:00,
2013-01-05 14:30:00,41.3,33.3,30.16,East,86,3.0,3.0,73,0.00,,,0.00,Wunderground v.1.15,2013-01-05 20:30:00,
2013-01-05 14:40:00,41.3,33.3,30.16,East,83,2.0,14.0,73,0.00,,,0.00,Wunderground v.1.15,2013-01-05 20:40:00,
2013-01-05 14:45:00,41.3,33.0,30.16,East,87,2.0,14.0,72,0.00,,,0.00,Wunderground v.1.15,2013-01-05 20:45:00,
2013-01-05 14:50:00,41.3,33.0,30.15,East,84,3.0,3.0,72,0.00,,,0.00,Wunderground v.1.15,2013-01-05 20:50:00,
2013-01-05 14:55:00,41.4,33.0,30.15,ESE,110,3.0,14.0,72,0.00,,,0.00,Wunderground v.1.15,2013-01-05 20:55:00,
2013-01-05 15:00:00,41.4,33.0,30.15,ESE,120,3.0,3.0,72,0.00,,,0.00,Wunderground v.1.15,2013-01-05 21:00:00,
2013-01-05 15:10:00,41.5,32.8,30.15,ESE,115,4.0,14.0,71,0.00,,,0.00,Wunderground v.1.15,2013-01-05 21:10:00,
2013-01-05 15:15:00,41.6,32.5,30.15,ESE,110,4.0,14.0,70,0.00,,,0.00,Wunderground v.1.15,2013-01-05 21:15:00,
2013-01-05 15:19:00,41.6,32.9,30.15,ESE,107,4.0,4.0,71,0.00,,,0.00,Wunderground v.1.15,2013-01-05 21:19:00,
2013-01-05 15:25:00,41.7,33.0,30.15,ESE,120,2.0,14.0,71,0.00,,,0.00,Wunderground v.1.15,2013-01-05 21:25:00,
2013-01-05 15:30:00,41.7,32.6,30.14,ENE,73,3.0,14.0,70,0.00,,,0.00,Wunderground v.1.15,2013-01-05 21:30:00,
2013-01-05 15:40:00,41.7,32.6,30.14,East,99,5.0,14.0,70,0.00,,,0.00,Wunderground v.1.15,2013-01-05 21:40:00,
2013-01-05 15:45:00,41.7,32.6,30.14,ESE,110,4.0,14.0,70,0.00,,,0.00,Wunderground v.1.15,2013-01-05 21:45:00,
2013-01-05 15:55:00,41.6,32.5,30.14,ESE,117,3.0,14.0,70,0.00,,,0.00,Wunderground v.1.15,2013-01-05 21:55:00,
2013-01-05 16:00:00,41.6,32.5,30.14,SE,131,2.0,14.0,70,0.00,,,0.00,Wunderground v.1.15,2013-01-05 22:00:00,
2013-01-05 16:05:00,41.6,32.5,30.14,SE,127,3.0,14.0,70,0.00,,,0.00,Wunderground v.1.15,2013-01-05 22:05:00,
2013-01-05 16:14:00,41.5,32.4,30.15,ESE,114,3.0,14.0,70,0.00,,,0.00,Wunderground v.1.15,2013-01-05 22:14:00,
2013-01-05 16:20:00,41.5,32.4,30.15,SSE,158,3.0,14.0,70,0.00,,,0.00,Wunderground v.1.15,2013-01-05 22:20:00,
2013-01-05 16:25:00,41.5,32.4,30.15,South,171,3.0,14.0,70,0.00,,,0.00,Wunderground v.1.15,2013-01-05 22:25:00,
2013-01-05 16:30:00,41.5,32.4,30.15,SE,134,3.0,14.0,70,0.00,,,0.00,Wunderground v.1.15,2013-01-05 22:30:00,
2013-01-05 16:35:00,41.4,32.3,30.15,South,180,3.0,14.0,70,0.00,,,0.00,Wunderground v.1.15,2013-01-05 22:35:00,
2013-01-05 16:45:00,41.3,32.2,30.16,ESE,117,1.0,14.0,70,0.00,,,0.00,Wunderground v.1.15,2013-01-05 22:45:00,
2013-01-05 16:55:00,41.3,32.2,30.16,ESE,103,3.0,14.0,70,0.00,,,0.00,Wunderground v.1.15,2013-01-05 22:55:00,
2013-01-05 17:00:00,41.2,32.2,30.17,ESE,117,2.0,14.0,70,0.00,,,0.00,Wunderground v.1.15,2013-01-05 23:00:00,
2013-01-05 17:10:00,41.2,32.5,30.17,ESE,119,2.0,2.0,71,0.00,,,0.00,Wunderground v.1.15,2013-01-05 23:10:00,
2013-01-05 17:15:00,41.1,32.4,30.17,ESE,105,2.0,6.0,71,0.00,,,0.00,Wunderground v.1.15,2013-01-05 23:15:00,
2013-01-05 17:19:00,41.1,32.4,30.17,SSE,156,2.0,2.0,71,0.00,,,0.00,Wunderground v.1.15,2013-01-05 23:19:00,
2013-01-05 17:25:00,41.1,32.4,30.17,East,81,1.0,14.0,71,0.00,,,0.00,Wunderground v.1.15,2013-01-05 23:25:00,
2013-01-05 17:35:00,41.1,32.4,30.17,SE,132,2.0,14.0,71,0.00,,,0.00,Wunderground v.1.15,2013-01-05 23:35:00,
2013-01-05 17:45:00,40.9,32.6,30.18,SE,132,1.0,14.0,72,0.00,,,0.00,Wunderground v.1.15,2013-01-05 23:45:00,
2013-01-05 17:50:00,40.9,32.6,30.18,East,92,1.0,14.0,72,0.00,,,0.00,Wunderground v.1.15,2013-01-05 23:50:00,
2013-01-05 17:55:00,40.9,32.6,30.18,East,101,1.0,14.0,72,0.00,,,0.00,Wunderground v.1.15,2013-01-05 23:55:00,
2013-01-05 18:00:00,40.9,32.6,30.18,ESE,110,1.0,14.0,72,0.00,,,0.00,Wunderground v.1.15,2013-01-06 00:00:00,
2013-01-05 18:05:00,40.9,32.6,30.18,ESE,107,2.0,14.0,72,0.00,,,0.00,Wunderground v.1.15,2013-01-06 00:05:00,
2013-01-05 18:10:00,41.0,32.7,30.18,ESE,110,2.0,14.0,72,0.00,,,0.00,Wunderground v.1.15,2013-01-06 00:10:00,
2013-01-05 18:15:00,40.9,32.6,30.18,ESE,103,2.0,14.0,72,0.00,,,0.00,Wunderground v.1.15,2013-01-06 00:15:00,
2013-01-05 18:20:00,41.0,32.7,30.18,ESE,113,2.0,2.0,72,0.00,,,0.00,Wunderground v.1.15,2013-01-06 00:20:00,
2013-01-05 18:25:00,40.9,32.6,30.18,ESE,122,2.0,14.0,72,0.00,,,0.00,Wunderground v.1.15,2013-01-06 00:25:00,
2013-01-05 18:30:00,40.7,32.7,30.18,ESE,110,1.0,14.0,73,0.00,,,0.00,Wunderground v.1.15,2013-01-06 00:30:00,
2013-01-05 18:35:00,40.6,32.6,30.18,SE,124,1.0,14.0,73,0.00,,,0.00,Wunderground v.1.15,2013-01-06 00:35:00,
2013-01-05 18:40:00,40.6,33.0,30.18,East,94,2.0,14.0,74,0.00,,,0.00,Wunderground v.1.15,2013-01-06 00:40:00,
2013-01-05 18:50:00,40.6,33.0,30.18,SE,132,1.0,1.0,74,0.00,,,0.00,Wunderground v.1.15,2013-01-06 00:50:00,
2013-01-05 18:55:00,40.4,32.8,30.18,South,177,1.0,14.0,74,0.00,,,0.00,Wunderground v.1.15,2013-01-06 00:55:00,
2013-01-05 19:05:00,40.1,32.5,30.18,ESE,117,1.0,14.0,74,0.00,,,0.00,Wunderground v.1.15,2013-01-06 01:05:00,
2013-01-05 19:10:00,39.7,32.4,30.18,ESE,110,1.0,14.0,75,0.00,,,0.00,Wunderground v.1.15,2013-01-06 01:10:00,
2013-01-05 19:15:00,39.6,32.7,30.18,East,96,1.0,14.0,76,0.00,,,0.00,Wunderground v.1.15,2013-01-06 01:15:00,
2013-01-05 19:20:00,39.3,32.4,30.18,ESE,115,1.0,14.0,76,0.00,,,0.00,Wunderground v.1.15,2013-01-06 01:20:00,
2013-01-05 19:25:00,39.0,32.1,30.18,SE,124,1.0,14.0,76,0.00,,,0.00,Wunderground v.1.15,2013-01-06 01:25:00,
2013-01-05 19:30:00,38.8,32.2,30.18,ESE,107,1.0,1.0,77,0.00,,,0.00,Wunderground v.1.15,2013-01-06 01:30:00,
2013-01-05 19:35:00,38.7,32.1,30.18,SE,127,1.0,14.0,77,0.00,,,0.00,Wunderground v.1.15,2013-01-06 01:35:00,
2013-01-05 19:45:00,38.3,32.0,30.17,SE,139,1.0,14.0,78,0.00,,,0.00,Wunderground v.1.15,2013-01-06 01:45:00,
2013-01-05 19:50:00,38.1,31.8,30.18,ESE,117,1.0,1.0,78,0.00,,,0.00,Wunderground v.1.15,2013-01-06 01:50:00,
2013-01-05 19:55:00,37.9,32.0,30.18,ESE,106,0.0,2.0,79,0.00,,,0.00,Wunderground v.1.15,2013-01-06 01:55:00,
2013-01-05 20:00:00,37.9,32.3,30.18,ESE,110,0.0,14.0,80,0.00,,,0.00,Wunderground v.1.15,2013-01-06 02:00:00,
2013-01-05 20:05:00,38.0,32.4,30.18,SW,224,1.0,14.0,80,0.00,,,0.00,Wunderground v.1.15,2013-01-06 02:05:00,
2013-01-05 20:15:00,37.5,31.9,30.18,ENE,76,0.0,2.0,80,0.00,,,0.00,Wunderground v.1.15,2013-01-06 02:15:00,
2013-01-05 20:20:00,37.6,32.0,30.18,SE,132,1.0,1.0,80,0.00,,,0.00,Wunderground v.1.15,2013-01-06 02:20:00,
2013-01-05 20:25:00,37.5,31.9,30.18,ESE,110,1.0,14.0,80,0.00,,,0.00,Wunderground v.1.15,2013-01-06 02:25:00,
2013-01-05 20:30:00,37.5,32.2,30.18,SE,129,0.0,14.0,81,0.00,,,0.00,Wunderground v.1.15,2013-01-06 02:30:00,
2013-01-05 20:35:00,37.6,32.3,30.18,East,92,1.0,14.0,81,0.00,,,0.00,Wunderground v.1.15,2013-01-06 02:35:00,
2013-01-05 20:40:00,37.6,32.0,30.17,ESE,106,1.0,14.0,80,0.00,,,0.00,Wunderground v.1.15,2013-01-06 02:40:00,
2013-01-05 20:45:00,37.5,32.2,30.17,ESE,122,1.0,14.0,81,0.00,,,0.00,Wunderground v.1.15,2013-01-06 02:45:00,
2013-01-05 20:55:00,37.7,32.4,30.17,SSE,167,2.0,14.0,81,0.00,,,0.00,Wunderground v.1.15,2013-01-06 02:55:00,
2013-01-05 21:00:00,37.7,32.4,30.17,East,93,2.0,2.0,81,0.00,,,0.00,Wunderground v.1.15,2013-01-06 03:00:00,
2013-01-05 21:04:00,37.8,32.2,30.17,East,95,1.0,14.0,80,0.00,,,0.00,Wunderground v.1.15,2013-01-06 03:04:00,
2013-01-05 21:10:00,37.8,32.2,30.17,SE,136,2.0,2.0,80,0.00,,,0.00,Wunderground v.1.15,2013-01-06 03:10:00,
2013-01-05 21:15:00,37.8,32.2,30.17,SSE,148,2.0,3.0,80,0.00,,,0.00,Wunderground v.1.15,2013-01-06 03:15:00,
2013-01-05 21:25:00,38.0,32.4,30.17,ESE,123,2.0,14.0,80,0.00,,,0.00,Wunderground v.1.15,2013-01-06 03:25:00,
2013-01-05 21:30:00,37.9,32.3,30.17,SE,133,2.0,14.0,80,0.00,,,0.00,Wunderground v.1.15,2013-01-06 03:30:00,
2013-01-05 21:35:00,37.9,32.3,30.17,ENE,78,2.0,14.0,80,0.00,,,0.00,Wunderground v.1.15,2013-01-06 03:35:00,
2013-01-05 21:40:00,37.9,32.3,30.16,West,259,3.0,3.0,80,0.00,,,0.00,Wunderground v.1.15,2013-01-06 03:40:00,
2013-01-05 21:45:00,37.8,32.2,30.17,ESE,108,2.0,14.0,80,0.00,,,0.00,Wunderground v.1.15,2013-01-06 03:45:00,
2013-01-05 21:55:00,37.8,32.2,30.17,SE,141,3.0,14.0,80,0.00,,,0.00,Wunderground v.1.15,2013-01-06 03:55:00,
2013-01-05 22:00:00,37.8,32.2,30.17,ESE,118,3.0,3.0,80,0.00,,,0.00,Wunderground v.1.15,2013-01-06 04:00:00,
2013-01-05 22:04:00,37.9,32.3,30.17,ESE,110,4.0,4.0,80,0.00,,,0.00,Wunderground v.1.15,2013-01-06 04:04:00,
2013-01-05 22:10:00,37.7,32.1,30.17,ESE,122,4.0,14.0,80,0.00,,,0.00,Wunderground v.1.15,2013-01-06 04:10:00,
2013-01-05 22:15:00,37.7,32.1,30.17,ESE,113,3.0,14.0,80,0.00,,,0.00,Wunderground v.1.15,2013-01-06 04:15:00,
2013-01-05 22:25:00,37.7,32.1,30.17,ESE,107,3.0,14.0,80,0.00,,,0.00,Wunderground v.1.15,2013-01-06 04:25:00,
2013-01-05 22:30:00,37.7,32.1,30.17,ESE,113,3.0,14.0,80,0.00,,,0.00,Wunderground v.1.15,2013-01-06 04:30:00,
2013-01-05 22:35:00,37.6,32.0,30.17,SSE,154,3.0,14.0,80,0.00,,,0.00,Wunderground v.1.15,2013-01-06 04:35:00,
2013-01-05 22:40:00,37.5,31.9,30.17,ESE,113,4.0,4.0,80,0.00,,,0.00,Wunderground v.1.15,2013-01-06 04:40:00,
2013-01-05 22:50:00,37.3,31.7,30.17,ESE,115,3.0,14.0,80,0.00,,,0.00,Wunderground v.1.15,2013-01-06 04:50:00,
2013-01-05 22:59:00,37.1,31.5,30.17,SSW,208,3.0,14.0,80,0.00,,,0.00,Wunderground v.1.15,2013-01-06 04:59:00,
2013-01-05 23:05:00,36.7,31.1,30.18,SW,235,2.0,14.0,80,0.00,,,0.00,Wunderground v.1.15,2013-01-06 05:05:00,
2013-01-05 23:10:00,36.5,31.2,30.18,ESE,115,1.0,14.0,81,0.00,,,0.00,Wunderground v.1.15,2013-01-06 05:10:00,
2013-01-05 23:15:00,36.1,30.8,30.18,SE,137,1.0,14.0,81,0.00,,,0.00,Wunderground v.1.15,2013-01-06 05:15:00,
2013-01-05 23:20:00,36.1,31.1,30.17,SE,145,1.0,14.0,82,0.00,,,0.00,Wunderground v.1.15,2013-01-06 05:20:00,
2013-01-05 23:30:00,35.8,30.8,30.18,SE,135,1.0,14.0,82,0.00,,,0.00,Wunderground v.1.15,2013-01-06 05:30:00,
2013-01-05 23:35:00,35.7,30.7,30.18,ESE,113,1.0,14.0,82,0.00,,,0.00,Wunderground v.1.15,2013-01-06 05:35:00,
2013-01-05 23:45:00,35.5,30.8,30.18,East,89,1.0,14.0,83,0.00,,,0.00,Wunderground v.1.15,2013-01-06 05:45:00,
2013-01-05 23:50:00,35.3,30.7,30.18,South,176,1.0,14.0,83,0.00,,,0.00,Wunderground v.1.15,2013-01-06 05:50:00,